{"data":{"norad_id":53291,"intl_designator":"2022-086BB","name":"STARLINK-4166","alt_names":[],"object_type":"PAYLOAD","status":"ACTIVE","operator":null,"country":"US","launch_date":"2022-07-24","launch_site_code":"AFETR","launch_vehicle":null,"mission":null,"orbit_class":"UNKNOWN","rcs_meters":null,"size_class":null,"mass_kg":null,"dimensions":null,"purposes":["comms"],"wikipedia_slug":null,"has_3d_model":false,"image_url":null,"decayed_at":null,"tle_current":{"epoch":"2026-09-20T00:13:53.105088Z","epoch_age_seconds":117738,"freshness":"FRESH","line1":"1 53291U 22086BB  26263.00964242 -.00002804  00000+0 -69499-4 0  9990","line2":"2 53291  53.1608  11.8889 0001170  63.5789 296.5334 15.35398181230794","mean_motion":15.35398181,"eccentricity":0.000117,"inclination_deg":53.1608,"raan_deg":11.8889,"arg_perigee_deg":63.5789,"mean_anomaly_deg":296.5334,"bstar":-6.9499e-5,"rev_number":23079,"period_min":93.786746514323,"perigee_km":458.9380119503,"apogee_km":460.53807471044,"semimajor_km":6837.8750433304,"source":"CELESTRAK","updated_at":"2026-09-20T09:00:40.221839Z"}}}